Location: The Saddle
(36.8333°N, 80.3417°W)
Time: 18:05:48
(UTC-04:00)

CUTE-I - Pass Details

Date: 24 September 2024
Orbit: 806 x 820 km, 98.7° (Epoch: 04 October)

Event Time Altitude Azimuth Distance (km) Brightness Sun altitude
Rises 06:36:26 0° 30° (NNE) 3,343 ? -7.8°
Reaches altitude 10° 06:39:22 10° 46° (NE) 2,404 ? -7.2°
Maximum altitude 06:43:19 21° 94° (E) 1,744 ? -6.4°
Drops below altitude 10° 06:47:15 10° 143° (SE) 2,385 ? -5.6°
Sets 06:50:08 0° 159° (SSE) 3,310 ? -5.1°
